"Pseudo-MPEC" for P12oAYR

Created 2026 Jul 26 18:35:06 UT using Find_Orb

Click here for an explanation of pseudo-MPECs

 
 Astrometry: 
     P12oAYR*0C2026 07 24.57453423 14 51.474+07 28 52.83   ~7OFo 22.23wXNEOCPF51
     P12oAYR 0C2026 07 24.58631723 14 52.055+07 29 03.30   ~7OFo 22.02wXNEOCPF51
     P12oAYR 0C2026 07 24.59838023 14 52.633+07 29 13.92   ~7OFo 22.01wXNEOCPF51
     P12oAYR 0C2026 07 26.51234423 16 33.342+07 57 05.90   ~7QDZ 22.13wXNEOCPF52
     P12oAYR 0C2026 07 26.52197723 16 33.768+07 57 14.01   ~7QDZ 22.40wXNEOCPF52
     P12oAYR 0C2026 07 26.53180623 16 34.219+07 57 22.50   ~7QDZ 22.30wXNEOCPF52

Station data:
(F51) Pan-STARRS 1, Haleakala  (N20.707234 W156.255910)  US/Hawaii.
   Observers J. Herman, T. Lowe, P. Minguez, A. Schultz, I. Smith. Measurers
   K. Chambers, T. de Boer, J. Fairlamb, H. Gao, M. Huber, C.-C. Lin, E.
   Magnier, Y. Ramanjooloo, R. Wainscoat, R. Weryk. 1.8-m Ritchey-Chrétien +
   CCD.
(F52) Pan-STARRS 2, Haleakala  (N20.707382 W156.255910)  US/Hawaii.
   Observers J. Herman, T. Lowe, P. Minguez, A. Schultz, I. Smith. Measurers
   K. Chambers, T. de Boer, J. Fairlamb, H. Gao, M. Huber, C.-C. Lin, E.
   Magnier, Y. Ramanjooloo, R. Wainscoat, R. Weryk. 1.8-m Ritchey-Chrétien +
   CCD.

Orbital elements:  P12oAYR
   Perihelion 2026 Oct 18.770116 +/- 53.1 TT = 18:28:58.0 (JD 2461332.270116)
Epoch 2026 Jul 26.0 TT = JDT 2461247.5   Earth MOID: 0.4418   Ma: 0.0430
M 333.427105045 +/- 23              (J2000 ecliptic)             AutoNEOCP
n   0.313470078 +/- 0.153           Peri.  127.143669 +/- 48
a   2.146208880 +/- 0.697           Node   248.772572 +/- 12
e   0.33325965 +/- 0.152            Incl.    5.544835 +/- 0.7
P   3.14418                H 20.39  G  0.15   U 11.5  SR
q 1.430964040 +/- 0.161    Q 2.861453720 +/- 1.68
From 6 observations 2026 July 24-26 (47.0 hr); mean residual 0".13
Residuals in arcseconds: 
260724 F51  .05+  .10-    260724 F51  .13-  .07+    260726 F52  .08-  .07-    
260724 F51  .08+  .03+    260726 F52  .25+  .21+    260726 F52  .16-  .13-    

Ephemerides (geocentric):
Date (UTC) HH   RA             Dec           delta  r     elong  mag " sig PA
---- --------  ------------   ------------  ------ ------ -----  --- --------
2026 07 26 19  23 16 47.325   +08 01 10.57  .73226 1.5834 129.2 22.0 3.70 122
2026 07 26 20  23 16 49.437   +08 01 46.66  .73192 1.5833 129.2 22.0 4.33 124
2026 07 26 21  23 16 51.546   +08 02 22.74  .73158 1.5832 129.2 22.0 4.98 125
2026 07 26 22  23 16 53.654   +08 02 58.81  .73124 1.5830 129.3 22.0 5.65 126
2026 07 26 23  23 16 55.759   +08 03 34.87  .73090 1.5829 129.3 22.0 6.35 127
2026 07 27 00  23 16 57.861   +08 04 10.92  .73057 1.5828 129.3 22.0 7.07 128
2026 07 27 01  23 16 59.961   +08 04 46.96  .73023 1.5826 129.3 22.0 7.81 128
2026 07 27 02  23 17 02.059   +08 05 22.99  .72989 1.5825 129.4 22.0 8.57 129
2026 07 27 03  23 17 04.154   +08 05 59.00  .72955 1.5823 129.4 22.0 9.35 129
2026 07 27 04  23 17 06.247   +08 06 35.01  .72921 1.5822 129.4 22.0 10.2 129
2026 07 27 05  23 17 08.337   +08 07 11.00  .72887 1.5821 129.4 22.0 11.0 130
2026 07 27 06  23 17 10.425   +08 07 46.99  .72853 1.5819 129.5 22.0 11.8 130
2026 07 27 07  23 17 12.511   +08 08 22.96  .72819 1.5818 129.5 22.0 12.7 130
2026 07 27 08  23 17 14.594   +08 08 58.92  .72786 1.5817 129.5 22.0 13.6 130
2026 07 27 09  23 17 16.675   +08 09 34.87  .72752 1.5815 129.5 22.0 14.5 131
2026 07 27 10  23 17 18.753   +08 10 10.81  .72718 1.5814 129.6 22.0 15.4 131
2026 07 27 11  23 17 20.829   +08 10 46.74  .72684 1.5813 129.6 22.0 16.4 131
2026 07 27 12  23 17 22.902   +08 11 22.66  .72650 1.5811 129.6 22.0 17.3 131
2026 07 27 13  23 17 24.973   +08 11 58.57  .72617 1.5810 129.6 22.0 18.3 131
2026 07 27 14  23 17 27.042   +08 12 34.47  .72583 1.5809 129.7 22.0 19.3 131
2026 07 27 15  23 17 29.108   +08 13 10.35  .72549 1.5807 129.7 22.0 20.4 131
2026 07 27 16  23 17 31.172   +08 13 46.22  .72516 1.5806 129.7 22.0 21.4 131
2026 07 27 17  23 17 33.233   +08 14 22.09  .72482 1.5804 129.8 22.0 22.5 132
2026 07 27 18  23 17 35.292   +08 14 57.94  .72448 1.5803 129.8 22.0 23.6 132
2026 07 27 19  23 17 37.348   +08 15 33.78  .72415 1.5802 129.8 22.0 24.7 132
2026 07 27 20  23 17 39.402   +08 16 09.61  .72381 1.5800 129.8 22.0 25.9 132
2026 07 27 21  23 17 41.453   +08 16 45.42  .72348 1.5799 129.9 22.0 27.0 132
2026 07 27 22  23 17 43.502   +08 17 21.23  .72314 1.5798 129.9 22.0 28.2 132
2026 07 27 23  23 17 45.549   +08 17 57.02  .72280 1.5796 129.9 22.0 29.4 132
2026 07 28 00  23 17 47.593   +08 18 32.81  .72247 1.5795 129.9 22.0 30.6 132
2026 07 28 01  23 17 49.635   +08 19 08.58  .72213 1.5794 130.0 22.0 31.9 132
2026 07 28 02  23 17 51.674   +08 19 44.34  .72180 1.5792 130.0 22.0 33.1 132
2026 07 28 03  23 17 53.711   +08 20 20.09  .72146 1.5791 130.0 22.0 34.4 132
2026 07 28 04  23 17 55.745   +08 20 55.83  .72113 1.5790 130.0 22.0 35.7 132
2026 07 28 05  23 17 57.777   +08 21 31.55  .72080 1.5788 130.1 22.0 37.0 132
2026 07 28 06  23 17 59.806   +08 22 07.27  .72046 1.5787 130.1 22.0 38.4 132
2026 07 28 07  23 18 01.833   +08 22 42.97  .72013 1.5786 130.1 22.0 39.8 132
2026 07 28 08  23 18 03.857   +08 23 18.66  .71979 1.5784 130.1 22.0 41.1 132
2026 07 28 09  23 18 05.879   +08 23 54.34  .71946 1.5783 130.2 22.0 42.6 132
2026 07 28 10  23 18 07.899   +08 24 30.01  .71913 1.5782 130.2 22.0 44.0 133
2026 07 28 11  23 18 09.916   +08 25 05.66  .71879 1.5780 130.2 21.9 45.4 133
2026 07 28 12  23 18 11.930   +08 25 41.31  .71846 1.5779 130.2 21.9 46.9 133
2026 07 28 13  23 18 13.942   +08 26 16.94  .71813 1.5777 130.3 21.9 48.4 133
2026 07 28 14  23 18 15.952   +08 26 52.56  .71779 1.5776 130.3 21.9 49.9 133
2026 07 28 15  23 18 17.959   +08 27 28.17  .71746 1.5775 130.3 21.9 51.5 133
2026 07 28 16  23 18 19.964   +08 28 03.76  .71713 1.5773 130.3 21.9 53.0 133
2026 07 28 17  23 18 21.966   +08 28 39.35  .71680 1.5772 130.4 21.9 54.6 133
2026 07 28 18  23 18 23.965   +08 29 14.92  .71646 1.5771 130.4 21.9 56.2 133